This is the latest recevied weather packets stored in our database for station/object K3MV-13. If no packets are shown the sender has not sent any weather packets the latest 10 day(s).
| Time | Temp. | Humidity | Pressure | Rain* | Wind** | Luminosity | Snow |
|---|---|---|---|---|---|---|---|
| 1777204915 | 7.22° C | 97% | 1017.6 hPa | 0 mm | - | 46 W/m² | - |
| 1777204610 | 7.22° C | 97% | 1017.5 hPa | 0 mm | - | 37 W/m² | - |
| 1777204306 | 7.78° C | 98% | 1017.5 hPa | 0 mm | - | 36 W/m² | - |
| 1777204004 | 7.78° C | 98% | 1017.1 hPa | 0 mm | - | 41 W/m² | - |
| 1777203703 | 7.22° C | 98% | 1017.1 hPa | 0 mm | - | 36 W/m² | - |
| 1777203398 | 7.22° C | 98% | 1017 hPa | 0 mm | - | 35 W/m² | - |
| 1777203095 | 7.22° C | 98% | 1017 hPa | 0 mm | - | 31 W/m² | - |
| 1777202792 | 7.22° C | 98% | 1016.9 hPa | 0 mm | - | 31 W/m² | - |
| 1777202490 | 7.22° C | 97% | 1016.9 hPa | 0 mm | - | 20 W/m² | - |
| 1777202185 | 7.22° C | 97% | 1017 hPa | 0 mm | - | 15 W/m² | - |
| 1777201882 | 7.22° C | 97% | 1016.8 hPa | 1.78 mm | - | 14 W/m² | - |
| 1777201579 | 7.78° C | 97% | 1016.6 hPa | 1.78 mm | - | 12 W/m² | - |
| 1777201275 | 7.78° C | 97% | 1016.6 hPa | 0 mm | - | 9 W/m² | - |
| 1777200970 | 7.78° C | 97% | 1016.4 hPa | 0 mm | - | 8 W/m² | - |
| 1777200667 | 7.78° C | 97% | 1016.3 hPa | 0 mm | - | 6 W/m² | - |
| 1777200366 | 7.78° C | 97% | 1016.3 hPa | 1.27 mm | - | 4 W/m² | - |
| 1777200063 | 7.78° C | 97% | 1016 hPa | 1.27 mm | - | 2 W/m² | - |
| 1777199758 | 7.78° C | 97% | 1015.9 hPa | 0 mm | - | 2 W/m² | - |
| 1777199454 | 7.78° C | 97% | 1015.9 hPa | 0 mm | - | 1 W/m² | - |
| 1777199149 | 7.78° C | 97% | 1015.9 hPa | 0 mm | - | 1 W/m² | - |
| 1777198849 | 7.78° C | 97% | 1015.7 hPa | 0 mm | - | 0 W/m² | - |
| 1777198545 | 7.78° C | 97% | 1015.8 hPa | 0 mm | - | 0 W/m² | - |
| 1777198244 | 7.78° C | 97% | 1015.5 hPa | 0 mm | - | 0 W/m² | - |
| 1777197944 | 7.78° C | 97% | 1015.5 hPa | 0 mm | - | 0 W/m² | - |
| 1777197639 | 7.78° C | 97% | 1015.4 hPa | 0 mm | - | 0 W/m² | - |
* Rain latest hour (hover to see other rain measurements)
** Current wind speed in m/s (hover to see current wind gust speed)